www.pogodaiklimat.ru

Погода и климат >> Архив погоды >> Нигер >> Gaya


ПОГОДА в Gaya

  • Прогноз погоды в Gaya
  • Монитор погоды в Gaya
  • Климат города

АРХИВ ПОГОДЫ в Gaya

Время (UTC), дата Ветер
(напр.,м/с)
 
Видим.   Явления Облачность Т
(С)
Тd
(С)
f
(%)
Тe
(С)
Тes
(С)
Комфортность P
(гПа)
Po
(гПа)
Тmin
(С)
Tmax
(С)
R
(мм)
R24
(мм)
S
(см)
18 10.12 С 4 10 км 9/0
[Cs]
+29.0 +12.2 35 +30 +30 жарко 1012.2 989.5 +33.2
21 10.12 С 10 10 км 6/0
[Ci fib]
+25.0 +11.0 41 +26 +26 жарко 1014.2 991.3
03 11.12 штиль 0 10 км 4/0
[Ci fib]
+20.0 +8.0 46 +21 +21 комфорт 1012.7 989.9
06 11.12 С 6 10 км 9/0
[Ac lent Cs]
+19.0 +7.4 47 +19 +19 1013.8 990.8 +18.0
15 11.12 СВ 6 15 км 6/0
[Ac cast Ci sp]
+32.0 +13.1 32 +33 +35 жарко 1011.5 988.7
18 11.12 штиль 0 10 км 9/0
[Ac trans Cs]
+29.0 +13.2 38 +31 +31 жарко 1012.5 989.5 +33.0
21 11.12 С 8 10 км 4/0
[Ci fib]
+25.5 +11.7 42 +27 +27 жарко 1014.2 991.3
03 12.12 В 6 10 км 6/0
[Ci sp]
+22.0 +9.1 44 +23 +23 комфорт 1012.8 990.0
06 12.12 В 4 8000 м пыль 9/0
[Ac cast Cs]
+20.5 +10.6 53 +22 +22 комфорт 1013.7 990.8 +19.5
09 12.12 СВ 6 4500 м пыль 9/0
[Ac cast Cs]
+26.5 +11.0 38 +27 +30 жарко 1015.4 992.5
12 12.12 В 4 8000 м пыль 9/0
[Cs]
+31.5 +14.2 35 +33 +41 жарко 1013.4 990.7
18 12.12 С 6 8000 м пыль 9/0
[Cs]
+29.5 +13.0 36 +31 +31 жарко 1012.3 989.4 +33.8
21 12.12 С 10 10 км 6/0
[Ci fib]
+25.5 +11.7 42 +27 +27 жарко 1013.7 990.9
03 13.12 С 6 10 км 6/0
[Ci fib]
+22.0 +9.1 44 +23 +23 комфорт 1013.2 990.5
06 13.12 С 4 10 км 9/0
[Cs]
+20.5 +8.3 45 +22 +22 комфорт 1014.0 991.1 +19.5
09 13.12 В 8 8000 м мгла 9/0
[Cs]
+25.5 +10.6 39 +26 +28 жарко 1015.7 992.8
12 13.12 В 6 10 км 8/0
[Ci sp]
+31.5 +12.4 31 +32 +37 жарко 1014.2 991.5
15 13.12 СВ 6 10 км 6/0
[Ci fib]
+33.0 +12.3 28 +33 +35 жарко 1011.5 988.9
18 13.12 С 8 10 км 9/0
[Cs]
+29.5 +13.0 36 +31 +31 жарко 1012.9 990.0 +34.0
21 13.12 С 10 10 км 6/0
[Ci sp]
+25.5 +10.6 39 +26 +26 жарко 1014.6 991.7
03 14.12 С 8 10 км 6/0
[Ci sp]
+20.5 +8.2 45 +21 +21 комфорт 1013.2 990.4
06 14.12 В 6 10 км 9/0
[Cs]
+19.5 +6.8 44 +20 +20 1014.0 991.0 +18.0
09 14.12 С 6 15 км 4/0
[Ci fib]
+27.0 +9.1 32 +27 +27 жарко 1015.7 991.9
12 14.12 В 6 15 км 6/0
[Ci sp]
+32.5 +11.6 28 +33 +38 жарко 1012.9 990.2
15 14.12 В 6 15 км 6/0
[Ci sp]
+34.5 +13.6 28 +35 +37 очень
жарко
1010.7 988.1
18 14.12 С 4 10 км 9/0
[Cs]
+31.0 +11.8 31 +31 +31 жарко 1011.8 989.0 +35.5
21 14.12 С 10 10 км 6/0
[Ci fib]
+26.8 +9.7 34 +27 +27 жарко 1013.5 990.7
03 15.12 штиль 0 10 км 6/0
[Ci fib]
+22.0 +9.2 44 +23 +23 комфорт 1012.0 989.4
06 15.12 штиль 0 10 км 9/0
[Cs]
+19.2 +8.4 50 +20 +20 1014.0 991.1 +18.2
09 15.12 СВ 4 15 км 6/0
[Ci fib]
+25.5 +9.9 37 +32 +36 очень
душно
1015.8 992.9
12 15.12 штиль 0 15 км 6/0
[Ci fib]
+33.5 +12.0 27 +34 +51 опасность
солнечного
удара
1013.9 991.3
15 15.12 СВ 4 15 км 6/0
[Ci fib]
+35.0 +13.1 27 +35 +39 очень
жарко
1011.3 988.7
18 15.12 СВ 4 10 км 9/0
[Cs]
+31.0 +12.8 33 +32 +32 жарко 1012.3 989.4 +35.7
21 15.12 С 10 10 км 6/0
[Ci sp]
+26.5 +9.5 34 +27 +27 жарко 1013.6 990.8
03 16.12 С 14 10 км 4/0
[Ci fib]
+23.0 +6.8 35 +24 +24 комфорт 1011.9 989.3
06 16.12 С 10 10 км 9/0
[Cs]
+21.5 +6.8 39 +22 +22 комфорт 1012.9 990.1 +20.0
09 16.12 СВ 6 15 км 5/0
[Ci sp]
+27.0 +9.1 32 +27 +30 жарко 1014.8 992.0
12 16.12 СВ 6 15 км 6/0
[Ci sp]
+32.8 +11.3 27 +33 +38 жарко 1012.8 990.3
15 16.12 В 4 15 км 4/0
[Ci fib]
+35.0 +13.2 27 +35 +39 очень
жарко
1010.4 987.9
18 16.12 штиль 0 15 км 9/0
[Cs]
+31.5 +12.4 31 +32 +32 жарко 1011.5 988.8 +35.5
21 16.12 С 10 15 км 6/0
[Ci sp]
+27.0 +10.4 35 +28 +28 жарко 1013.3 990.5
03 17.12 С 12 10 км 6/0
[Ci sp]
+24.0 +7.0 34 +24 +24 комфорт 1012.7 990.1
06 17.12 СВ 10 8000 м мгла 9/0
[Cs]
+22.0 +6.6 37 +23 +23 комфорт 1013.7 990.9 +21.0
09 17.12 СВ 6 4000 м пыль 9/0
[Cs]
+25.5 +8.0 33 +26 +28 жарко 1015.8 993.0
12 17.12 В 10 4000 м пыль 9/0
[Cs]
+31.5 +12.4 31 +32 +33 жарко 1013.5 990.8
15 17.12 В 6 4500 м пыль 9/0
[Cs]
+32.5 +12.8 30 +33 +35 жарко 1011.0 988.4

 

Местоположение метеостанции Gaya (Нигер): широта 11.88 долгота 3.45 высота над уровнем моря 203 м.

В архиве по умолчанию представлена погода в Gaya за последнюю неделю. Архивные данные за месяц целиком и за предыдущие месяцы, начиная с января 2011 года, Вы можете получить, выбрав интересующий диапазон дат из раскрывающегося списка и нажав кнопку "Ввод!".


*Определитесь, кто Вы:
робот инопланетянин человек

Внимание! Время в таблицах - всемирное. Для получения местного времени необходимо прибавить поправку, которая в Gaya равна 1 ч.

Смотрите также архив погоды в соседних городах и на ближайших метеорологических станциях:

Погода в Kandi (Бенин) (101 км)
Погода в Dosso (Нигер) (129 км)
Погода в Yelwa (Нигерия) (180 км)
Погода в Niamey (Нигер) (226 км)
Погода в Natitingou (Бенин) (285 км)
Погода в Birni-Nkonni (Нигер) (289 км)
Погода в Parakou (Бенин) (296 км)
Погода в Fada N`Gourma (Буркина-Фасо) (336 км)
Погода в Tillabery (Нигер) (337 км)
Погода в Niamtougou (Того) (348 км)

Пояснения к столбцам:

Ветер - указаны скорость ветра в м/с - средняя за 10 мин, порывы в срок и между сроками (в фигурных скобках) и направление, откуда дует ветер: С - северный, СВ - северо-восточный, В - восточный, ЮВ - юго-восточный, Ю - южный, ЮЗ - юго-западный, З - западный, СЗ - северо-западный.
Видимость - горизонтальная дальность видимости в метрах или километрах. При видимости от 1 до 10 км при отсутствии осадков обычно наблюдается дымка, при ухудшении видимости до 1 км и менее - туман. В сухую погоду видимость может ухудшаться дымом, пылью или мглою.
Явления - указаны атмосферные явления, наблюдавшиеся в срок или в последний час перед сроком; фигурными скобками обозначены явления, наблюдавшиеся между сроками (за 1-3 часа до срока); квадратными скобками обозначены град или гололедные отложения с указанием их диаметра в мм.
Облачность - указаны через наклонную черту общая и нижняя облачность в баллах и высота нижней границы облаков в метрах; квадратными скобками обозначены формы облаков: Ci - перистые, Cs - перисто-слоистые, Cc - перисто-кучевые, Ac - высококучевые, As - высокослоистые, Sc - слоисто-кучевые, Ns - слоисто-дождевые, Cu - кучевые, Cb - кучево-дождевые. Подробнее классификацию облаков см. в Атласе облаков (PDF).
T - Температура воздуха - температура, измеренная на высоте 2 м над землей.
Td - Температура точки росы - температура, при понижении до которой содержащийся в воздухе водяной пар достигнет насыщения.
f - Относительная влажность воздуха - влажноcть воздуха, измеренная на высоте 2 м над землей.
Te - Эффективная температура - температура, которую ощущает одетый по сезону человек в тени. Характеристика душности погоды. При расчете учитывается влияние влажности воздуха и скорости ветра на теплоощущения человека.
Tes - Эффективная температура на солнце - температура, которую ощущает человек, с поправкой на солнечный нагрев. Характеристика знойности погоды. Зависит от высоты солнца над горизонтом, облачности и скорости ветра. Ночью, в пасмурную погоду, а также при ветре 12 м/с и более поправка равна нулю.
P - Атмосферное давление - приведенное к уровню моря атмосферное давление.
Po - Атмосферное давление - измеренное на уровне метеостанции атмосферное давление.
Tmin - Минимальная температура - минимум температуры воздуха на высоте 2 м над землей.
Tmax - Максимальная температура - максимум температуры воздуха на высоте 2 м над землей.
R - Количество осадков - Количество выпавших осадков за период времени, мм. При наведении курсора мыши на число - период времени, за который выпало указанное количество осадков.
R24 - Количество осадков - Количество выпавших осадков за 24 часа, мм.
S - Снежный покров - Высота снежного покрова, см. При наведении курсора мыши на число - состояние снежного покрова и степень покрытия местности в баллах.